[[{"header":{"parameterUnit":"m.s-1","parameterCategory":1,"la1":30.2991,"la2":30.254,"lo1":-89.0895,"lo2":-89.0444,"dy":0.0017,"dx":0.0017,"nx":28,"ny":28,"refTime":"2025-06-14T21:00:00:Z","depth":0,"parameterNumber":2,"parameterNumberName":"U-component_of_WINDS"},"data":[0,0,0,0,0,0,0,0,0,0,0,0,0,0,0,0,0,0,0,0,0,0,0,0,0,0,0,0,0,0,0,0,0,0,0,0,0,0,0,0,0,0,0,0,0,0,0,0,0,0,0,0,0,0,0,0,0,0,2.2491,2.2493,0,2.2621,2.2623,2.2624,2.2612,2.261,2.2608,2.2606,2.2738,2.2743,2.2748,0,0,0,0,0,0,0,0,0,0,0,0,0,2.2229,2.2234,2.2491,2.2493,2.2495,2.2621,2.2623,2.2625,2.2612,2.261,2.2607,2.2605,2.2736,2.2742,2.2749,0,0,0,0,0,0,0,0,0,0,0,0,0,2.2349,2.2236,2.2491,2.2504,2.2506,2.2621,2.2623,2.2625,2.2613,2.261,2.2607,2.2604,2.2734,2.2742,2.275,2.286,0,0,2.2775,2.2778,0,0,0,0,0,0,0,0,2.2343,2.2359,2.25,2.2503,2.2506,2.2597,2.2579,2.2704,2.2613,2.2572,2.2606,2.2602,2.2693,2.2705,2.2736,2.2866,2.2872,2.2775,2.278,2.2784,2.2786,0,0,0,0,0,0,0,2.2334,2.2353,2.2543,2.2502,2.2506,2.2502,2.2516,2.2603,2.2648,2.2575,2.2575,2.2591,2.2694,2.2728,2.2739,2.2874,2.2775,2.2782,2.2787,2.279,2.3099,2.3103,0,0,0,0,0,0,2.2323,2.2347,2.2539,2.2547,2.2415,2.2509,2.2524,2.2571,2.2647,2.2656,2.2593,2.2589,2.2716,2.2729,2.2743,2.2876,2.2784,2.2791,2.2796,2.3096,2.31,2.3104,0,0,0,0,0,0,2.2318,2.2341,2.2533,2.2447,2.2471,2.2517,2.2569,2.2575,2.2609,2.266,2.2668,2.2619,2.2714,2.2732,2.2831,2.288,2.2795,2.2802,2.3092,2.3097,2.3102,2.3143,0,0,0,0,0,0,2.231,2.2339,2.2382,2.2448,2.2475,2.262,2.2572,2.258,2.2623,2.2619,2.2687,2.2695,2.2713,2.2819,2.2839,2.289,2.2808,2.3088,2.3094,2.31,2.3137,2.3149,2.3159,0,0,0,0,0,2.2301,2.2388,2.2384,2.2407,2.253,2.2623,2.2638,2.2657,2.2627,2.267,2.2703,2.2693,2.2872,2.2829,2.2852,2.2906,2.3085,2.3093,2.31,2.3133,2.3147,2.3158,0,0,0,0,0,0,2.2327,2.2397,2.2393,2.2505,2.2558,2.262,2.2675,2.2672,2.2734,2.2728,2.2749,2.2764,2.2863,2.2895,2.2846,2.3015,2.2974,2.2987,2.2991,2.3005,2.3015,2.3005,2.2815,0,0,0,0,0,2.2346,2.2416,2.2473,2.2566,2.2592,2.2629,2.267,2.268,2.2736,2.2758,2.2798,2.2852,2.292,2.2964,2.303,2.3142,2.3155,2.319,2.3201,2.3209,2.3219,2.3279,2.3294,2.3129,2.3129,2.3128,0,0,2.2386,2.2432,2.2475,2.2572,2.2614,2.2685,2.2648,2.2725,2.2777,2.2769,2.2865,2.2896,2.2957,2.3063,2.3111,2.3092,2.3268,2.3219,2.3225,2.3231,2.3288,2.3304,2.3318,2.3134,2.3133,2.3132,0,0,2.2493,2.2536,2.2617,2.266,2.2725,2.2748,2.2768,2.2831,2.2851,2.2947,2.2942,2.3004,2.3122,2.3165,2.3202,2.3325,2.3317,2.3345,2.34,2.3458,2.3471,2.3483,2.3525,2.354,2.3356,2.3356,2.3356,0,2.2534,2.2641,2.2659,2.2736,2.2778,2.2775,2.2856,2.2897,2.2979,2.3007,2.2985,2.3131,2.3172,2.3286,2.3316,2.3347,2.3368,2.3337,2.3468,2.348,2.3491,2.3531,2.3547,2.3359,2.3358,2.3358,2.3358,0,2.2686,2.276,2.2818,2.2897,2.2946,2.3025,2.3054,2.3101,2.3107,2.3132,2.3229,2.3278,2.3353,2.3381,2.3387,2.3496,2.3481,2.3463,2.3422,2.3509,2.3547,2.3563,2.3363,2.3362,2.3361,2.336,0,0,2.2815,2.2902,2.2923,2.2958,2.3028,2.3085,2.3163,2.3236,2.3275,2.3332,2.3396,2.3495,2.3478,2.352,2.3531,2.3582,2.3673,2.3557,2.3559,2.3576,2.3794,2.3806,2.3824,2.3669,2.3672,2.3675,2.3788,0,2.2928,2.3066,2.3085,2.3207,2.3274,2.3271,2.3338,2.3388,2.3414,2.3474,2.3502,2.3571,2.3545,2.357,2.362,2.3652,2.3717,2.3644,2.3728,2.3731,2.3712,2.3844,2.3858,2.3962,2.3803,2.3806,2.3808,0,2.3079,2.3139,2.3268,2.3327,2.3356,2.3416,2.3483,2.3542,2.3597,2.3612,2.3659,2.3663,2.3742,2.3698,2.3806,2.3756,2.3791,2.3812,2.3816,2.3824,2.3774,2.3853,2.3996,2.4011,2.3832,2.383,2.3828,0,2.3157,2.327,2.3361,2.3392,2.3464,2.3506,2.3537,2.359,2.3632,2.3691,2.3718,2.3785,2.3822,2.3873,2.3895,2.3861,2.4001,2.3959,2.4014,2.4014,2.4043,2.4041,2.4192,2.4069,2.4068,2.4068,2.4068,0,2.3281,2.3359,2.3397,2.3453,2.354,2.356,2.3646,2.3676,2.3722,2.3783,2.3785,2.3841,2.3867,2.3928,2.3945,2.4031,2.4048,2.4061,2.4064,2.406,2.4058,2.4083,2.4076,2.4072,2.4071,2.4071,2.407,0,2.3382,2.3412,2.351,2.357,2.3586,2.3648,2.3698,2.3752,2.3776,2.3853,2.3872,2.3911,2.3982,2.4009,2.4096,2.4107,2.4206,2.4204,2.4187,2.4188,2.4241,2.4235,2.4412,2.4436,2.4298,2.4299,2.43,0,2.3459,2.3519,2.3585,2.3625,2.3658,2.3725,2.3767,2.3789,2.3833,2.39,2.3945,2.4016,2.4073,2.4187,2.4222,2.4288,2.4287,2.4344,2.4297,2.429,2.4286,2.4281,2.4286,2.4353,2.4354,2.4355,2.4356,0,2.3591,2.3602,2.3664,2.373,2.3781,2.3835,2.3886,2.392,2.3949,2.3998,2.4071,2.4116,2.4204,2.4273,2.434,2.4372,2.4369,2.4371,2.4387,2.4383,2.437,2.4376,2.421,2.4367,2.4366,2.4365,2.4364,2.4364,2.3681,2.3734,2.3788,2.3856,2.3897,2.3945,2.3998,2.4029,2.409,2.4163,2.4172,2.425,2.4302,2.4392,2.4426,2.4486,2.4471,2.4494,2.45,2.4505,2.4508,2.4361,2.4499,2.4499,2.4498,2.4498,2.4498,0,2.3812,2.3846,2.3909,2.3981,2.4034,2.4027,2.4083,2.4128,2.4196,2.4245,2.4302,2.4384,2.4451,2.4492,2.4559,2.4599,2.4599,2.4616,2.4612,2.4619,2.4519,2.4498,2.4614,2.4614,2.4614,2.4614,2.4614,2.4614,2.3886,2.3973,2.3991,2.4098,2.4132,2.4208,2.424,2.4284,2.4323,2.4415,2.4471,2.4497,2.4542,2.4612,2.4673,2.4683,2.4707,2.4725,2.4733,2.4638,2.4626,2.4615,2.4595,2.473,2.473,2.4828,2.4829,2.4829]},{"header":{"parameterUnit":"m.s-1","parameterCategory":1,"la1":30.2991,"la2":30.254,"lo1":-89.0895,"lo2":-89.0444,"dy":0.0017,"dx":0.0017,"nx":28,"ny":28,"refTime":"2025-06-14T21:00:00:Z","depth":0,"parameterNumber":3,"parameterNumberName":"V-component_of_WINDS"},"data":[0,0,0,0,0,0,0,0,0,0,0,0,0,0,0,0,0,0,0,0,0,0,0,0,0,0,0,0,0,0,0,0,0,0,0,0,0,0,0,0,0,0,0,0,0,0,0,0,0,0,0,0,0,0,0,0,0,0,4.5371,4.5373,0,4.5559,4.5561,4.5563,4.5524,4.5521,4.5517,4.5514,4.5705,4.5713,4.5721,0,0,0,0,0,0,0,0,0,0,0,0,0,4.4973,4.4981,4.5371,4.5373,4.5376,4.5559,4.5561,4.5564,4.5525,4.5521,4.5516,4.5512,4.5702,4.5712,4.5722,0,0,0,0,0,0,0,0,0,0,0,0,0,4.5152,4.4983,4.537,4.5378,4.5381,4.5558,4.5562,4.5565,4.5526,4.5521,4.5515,4.551,4.5699,4.5711,4.5723,4.5904,0,0,4.5761,4.5767,0,0,0,0,0,0,0,0,4.5142,4.5167,4.5375,4.5378,4.5381,4.5513,4.5491,4.5678,4.5527,4.5471,4.5514,4.5508,4.5645,4.5661,4.5708,4.5913,4.5921,4.5762,4.577,4.5775,4.5779,0,0,0,0,0,0,0,4.513,4.5158,4.5445,4.5378,4.5382,4.5371,4.539,4.5526,4.5585,4.5475,4.5473,4.5496,4.5646,4.5696,4.5712,4.5924,4.5762,4.5773,4.5781,4.5785,4.6284,4.629,0,0,0,0,0,0,4.5115,4.5148,4.5439,4.5451,4.5246,4.5382,4.5404,4.5476,4.5583,4.5594,4.55,4.5493,4.5677,4.5698,4.5719,4.5937,4.5775,4.5787,4.5794,4.6279,4.6286,4.6292,0,0,0,0,0,0,4.5106,4.5141,4.5432,4.5299,4.5335,4.5395,4.5475,4.5482,4.5533,4.5602,4.5612,4.5541,4.5674,4.5701,4.5858,4.5943,4.5792,4.5804,4.6272,4.6281,4.6289,4.6375,0,0,0,0,0,0,4.5095,4.5138,4.5209,4.5301,4.5342,4.5569,4.5481,4.549,4.5555,4.5548,4.5643,4.5654,4.5672,4.584,4.587,4.5957,4.5813,4.6265,4.6276,4.6286,4.6365,4.6386,4.6403,0,0,0,0,0,4.5081,4.5226,4.5213,4.5248,4.5432,4.5574,4.5598,4.5617,4.5562,4.5632,4.5676,4.5651,4.5928,4.5856,4.589,4.5982,4.6259,4.6273,4.6285,4.6356,4.6381,4.6403,0,0,0,0,0,0,4.5142,4.5238,4.5225,4.5404,4.5481,4.5567,4.5657,4.5643,4.5737,4.5727,4.5745,4.5767,4.5926,4.597,4.5887,4.6162,4.6086,4.6106,4.6128,4.6153,4.6171,4.6158,4.5824,0,0,0,0,0,4.5176,4.5285,4.5362,4.5512,4.5552,4.5598,4.5661,4.5668,4.5749,4.5781,4.5837,4.5915,4.602,4.6088,4.6189,4.637,4.639,4.645,4.6469,4.6485,4.6503,4.66,4.6628,4.6335,4.6335,4.6334,0,0,4.5248,4.5314,4.5381,4.5526,4.5587,4.5698,4.5626,4.5746,4.5828,4.5799,4.5951,4.5994,4.6082,4.6252,4.6329,4.6293,4.6587,4.6501,4.6513,4.6523,4.6616,4.6644,4.6669,4.6343,4.6342,4.634,0,0,4.5435,4.5497,4.5628,4.569,4.5783,4.5812,4.5844,4.5932,4.596,4.6112,4.6092,4.6189,4.6369,4.6433,4.6489,4.6698,4.6677,4.673,4.683,4.6925,4.6948,4.6969,4.7043,4.7069,4.6747,4.6747,4.6747,0,4.5513,4.568,4.5697,4.5819,4.5883,4.5862,4.5994,4.6053,4.6174,4.6217,4.6175,4.64,4.6458,4.6642,4.6692,4.6739,4.6774,4.6719,4.6944,4.6965,4.6984,4.7054,4.7082,4.6753,4.6752,4.6751,4.6751,0,4.577,4.5886,4.598,4.6098,4.6172,4.6298,4.6333,4.6406,4.6406,4.6439,4.6593,4.6662,4.6775,4.6819,4.6821,4.7002,4.6977,4.6939,4.6863,4.7017,4.7084,4.7111,4.6761,4.6759,4.6757,4.6756,0,0,4.6003,4.6127,4.6161,4.6213,4.6313,4.6403,4.6527,4.6638,4.6699,4.6783,4.6887,4.7039,4.7004,4.7067,4.7075,4.7159,4.7319,4.7111,4.7113,4.7146,4.7522,4.755,4.7581,4.7305,4.731,4.7315,4.7514,0,4.6199,4.642,4.6438,4.6636,4.6742,4.6722,4.683,4.6903,4.6936,4.703,4.7067,4.7174,4.712,4.7158,4.724,4.7282,4.7394,4.7268,4.7401,4.7406,4.738,4.7616,4.7646,4.7831,4.754,4.7545,4.7548,0,4.6458,4.655,4.6759,4.6842,4.6887,4.6984,4.7086,4.7177,4.7257,4.7276,4.7346,4.7342,4.7468,4.7386,4.756,4.7473,4.7528,4.7557,4.7565,4.7578,4.7487,4.7635,4.7891,4.7918,4.7589,4.7586,4.7583,0,4.6607,4.6781,4.6929,4.6974,4.7075,4.7144,4.7189,4.7264,4.7329,4.7418,4.746,4.7562,4.7617,4.7696,4.7719,4.7658,4.7891,4.7812,4.7909,4.7908,4.796,4.7956,4.8227,4.7995,4.7995,4.7994,4.7994,0,4.6824,4.6953,4.6997,4.7087,4.723,4.7248,4.7388,4.7429,4.7496,4.7593,4.7581,4.7672,4.7697,4.7792,4.7811,4.795,4.7976,4.7993,4.7997,4.7995,4.7993,4.8032,4.8019,4.8002,4.8,4.7998,4.7997,0,4.7015,4.7049,4.7208,4.7291,4.7314,4.7416,4.7485,4.7572,4.7602,4.7725,4.7755,4.7804,4.7915,4.7945,4.8078,4.8091,4.8255,4.8247,4.8228,4.8228,4.8324,4.8314,4.863,4.8672,4.8412,4.8414,4.8416,0,4.7152,4.725,4.7343,4.7407,4.7455,4.7559,4.7625,4.7645,4.7714,4.7812,4.7886,4.7996,4.8085,4.8263,4.8309,4.841,4.8404,4.8508,4.8419,4.8414,4.8405,4.8399,4.8409,4.8525,4.8527,4.853,4.8531,0,4.7391,4.7403,4.7499,4.7601,4.768,4.7761,4.7838,4.7891,4.7922,4.8,4.8114,4.8182,4.8318,4.8426,4.8528,4.8573,4.8558,4.8559,4.8586,4.8586,4.8571,4.858,4.8274,4.8552,4.855,4.8548,4.8547,4.8546,4.7559,4.7645,4.7723,4.783,4.789,4.7962,4.8047,4.8088,4.8184,4.8296,4.8301,4.8424,4.85,4.8635,4.8685,4.8781,4.875,4.879,4.8801,4.881,4.8818,4.8555,4.8799,4.8799,4.8798,4.8798,4.8798,0,4.7797,4.7846,4.7944,4.8053,4.8136,4.8114,4.8198,4.8269,4.8378,4.845,4.8537,4.8667,4.8771,4.8825,4.8929,4.8994,4.899,4.9021,4.9016,4.9027,4.884,4.8806,4.9023,4.9023,4.9023,4.9023,4.9023,4.9023,4.7931,4.8075,4.8095,4.8268,4.8315,4.8436,4.8486,4.8552,4.8609,4.8755,4.8842,4.8876,4.894,4.9048,4.9142,4.9155,4.9194,4.9229,4.9238,4.9063,4.904,4.9018,4.8986,4.9237,4.9237,4.9416,4.9418,4.9419]}]]